Regional Weather Roundup
Issued by NWS

Home | Current Version | Previous Version | Graphics & Text | Print | Product List | Glossary On
Versions: 1 2 3 4 5 6 7 8 9 10 11 12 13 14 15 16 17 18 19 20 21 22 23 24 25 26 27 28 29 30 31 32 33 34 35 36 37 38 39 40 41 42 43 44 45 46 47 48 49 50
000
ASUS43 KLSX 041507
RWRMO

WEATHER SUMMARY FOR MISSOURI
NATIONAL WEATHER SERVICE SPRINGFIELD MO
1000 AM CDT SAT JUL 04 2015

NOTE: "FAIR" INDICATES FEW OR NO CLOUDS BELOW 12,000 FEET WITH NO
       SIGNIFICANT WEATHER AND/OR OBSTRUCTIONS TO VISIBILITY.
       CURRENT SKY AND/OR WEATHER CONDITIONS ARE NOT AVAILABLE FOR
       CHILLICOTHE AND FARMINGTON.

MOZ001>031-035>038-043-044-053-054-041600-
...NORTHERN AND WESTERN MISSOURI...

CITY           SKY/WX    TMP DP  RH WIND       PRES   REMARKS
KANSAS CTY INT PTSUNNY   73  61  65 SE8       30.03R
KANSAS C DTWN  SUNNY     75  62  64 SE3       30.02R
LEE`S SUMMIT   SUNNY     74  60  61 SE5       30.04R
ST JOSEPH      SUNNY     73  63  70 SE3       30.03R
CHILLICOTHE      N/A     74  62  66 SE3       30.05R
KIRKSVILLE     SUNNY     74  63  68 VRB6      30.05R

$$
MOZ066>068-077>081-088>096-101>105-041600-
...SOUTHWEST MISSOURI...

CITY           SKY/WX    TMP DP  RH WIND       PRES   REMARKS
SPRINGFIELD    MOSUNNY   77  64  64 SE7       30.02S
JOPLIN         SUNNY     77  67  71 E7        30.02R

$$
MOZ032>034-039>042-045>050-055>058-069>072-041600-
...CENTRAL MISSOURI...

CITY           SKY/WX    TMP DP  RH WIND       PRES   REMARKS
COLUMBIA       SUNNY     74  64  71 E6        30.04S
JEFFERSON CITY SUNNY     72  64  76 E5        30.03S
ROLLA          MOSUNNY   73  67  81 SE5       30.04R
SEDALIA        SUNNY     76  64  66 SE7       30.05S
WHITEMAN AFB   SUNNY     74  64  69 VRB3      30.03R
WARRENSBURG    SUNNY     73  63  68 SE3       30.03S
OSAGE BEACH    SUNNY     73  64  73 CALM      30.04S

$$
MOZ051-052-059>065-041600-
...EAST CENTRAL MISSOURI...

CITY           SKY/WX    TMP DP  RH WIND       PRES   REMARKS
ST LOUIS INTL  MOSUNNY   77  65  66 CALM      30.04R
SPIRIT OF STL  MOSUNNY   75  68  78 CALM      30.02F
ST CHARLES     SUNNY     74  67  78 CALM      30.03R

$$
MOZ072>076-082>087-097>100-106>115-041600-
...SOUTH CENTRAL AND SOUTHEAST MISSOURI...

CITY           SKY/WX    TMP DP  RH WIND       PRES   REMARKS
CAPE GIRARDEAU MOSUNNY   76  69  79 NE5       30.01R
FARMINGTON     PTSUNNY   72  68  88 CALM      30.08R
POPLAR BLUFF   PTSUNNY   77  71  82 NE5       30.00R HAZE
WEST PLAINS    MOSUNNY   76  67  73 E6        30.04R

$$



USA.gov is the U.S. government's official web portal to all federal, state and local government web resources and services.